Weather History for PAED - October, 2013

Change the Weather History Date:

Wednesday, October 9, 2013

  Actual Average Record
Temperature  
Mean Temperature 44 °F -  
Max Temperature 49 °F 41 °F 66 °F (2006)
Min Temperature 36 °F 31 °F 17 °F (1965)
Degree Days  
Heating Degree Days 21    
Moisture  
Dew Point 34 °F    
Average Humidity 72    
Maximum Humidity 93    
Minimum Humidity 44    
Precipitation  
Precipitation 0.00 in - - ()
Sea Level Pressure  
Sea Level Pressure 29.41 in    
Wind  
Wind Speed 10 mph (SW)    
Max Wind Speed 22 mph    
Max Gust Speed 28 mph    
Visibility 10 miles    
Events      
Averages and records for this station are not official NWS values.
T = Trace of Precipitation, MM = Missing Value Source: NWS Daily Summary

Daily Weather History Graph

Daily Weather History Graph

Search for Another Location

Airport or City:

Trip Planner

Search our weather history database for the weather conditions in past years. The results will help you decide how hot, cold, wet, or windy it might be!

Date:

Astronomy

Oct. 09, 2013 Rise Set
Actual Time 8:27 AM AKDT 7:04 PM AKDT
Civil Twilight 7:43 AM AKDT 7:47 PM AKDT
Nautical Twilight 6:53 AM AKDT 8:37 PM AKDT
Astronomical Twilight 6:01 AM AKDT 9:28 PM AKDT
Moon 2:45 PM AKDT (10/9) 9:37 PM AKDT (10/9)
Length of Visible Light 12h 03m
Length of Day
10h 36m
Waxing Crescent, 27% of the Moon is Illuminated
Oct 9
Waxing Crescent
Oct 11
First Quarter
Oct 18
Full
Oct 26
Last Quarter
Nov 3
New

Hourly Weather History & Observations

Time (AKDT) Temp. Windchill Dew Point Humidity Pressure Visibility Wind Dir Wind Speed Gust Speed Precip Events Conditions
12:58 AM 40.5 °F 33.6 °F 37.2 °F 88% 29.08 in 10.0 mi SW 11.5 mph - N/A   Partly Cloudy
1:58 AM 40.6 °F 34.3 °F 37.8 °F 89% 29.11 in 10.0 mi WSW 10.4 mph - N/A   Partly Cloudy
2:13 AM 41.0 °F 35.2 °F 37.4 °F 87% 29.12 in 10.0 mi WSW 9.2 mph - N/A   Mostly Cloudy
2:18 AM 41.0 °F 34.7 °F 37.4 °F 87% 29.13 in 10.0 mi WSW 10.4 mph - N/A   Scattered Clouds
2:53 AM 41.0 °F 34.3 °F 37.4 °F 87% 29.15 in 10.0 mi WSW 11.5 mph - N/A   Mostly Cloudy
2:58 AM 41.2 °F 34.5 °F 38.1 °F 89% 29.14 in 10.0 mi WSW 11.5 mph - N/A   Mostly Cloudy
3:58 AM 39.2 °F 34.2 °F 37.4 °F 93% 29.18 in 10.0 mi WSW 6.9 mph - N/A   Scattered Clouds
4:33 AM 41.0 °F 34.7 °F 37.4 °F 87% 29.22 in 10.0 mi West 10.4 mph - N/A   Mostly Cloudy
4:43 AM 41.0 °F 35.2 °F 37.4 °F 87% 29.23 in 10.0 mi WSW 9.2 mph - N/A   Mostly Cloudy
4:58 AM 41.0 °F 34.7 °F 38.3 °F 90% 29.23 in 10.0 mi West 10.4 mph - N/A   Overcast
5:28 AM 41.0 °F 37.1 °F 37.4 °F 87% 29.26 in 10.0 mi WSW 5.8 mph - N/A   Overcast
5:43 AM 41.0 °F 35.8 °F 37.4 °F 87% 29.27 in 10.0 mi WSW 8.1 mph - N/A   Overcast
5:53 AM 41.0 °F 37.1 °F 37.4 °F 87% 29.28 in 10.0 mi WSW 5.8 mph - N/A   Overcast
5:58 AM 40.5 °F 36.5 °F 37.8 °F 90% 29.28 in 10.0 mi WSW 5.8 mph - N/A   Overcast
6:58 AM 40.6 °F 34.3 °F 36.5 °F 85% 29.32 in 10.0 mi WSW 10.4 mph - N/A   Mostly Cloudy
7:58 AM 40.3 °F 34.4 °F 35.2 °F 82% 29.36 in 10.0 mi WSW 9.2 mph - N/A   Scattered Clouds
8:58 AM 40.5 °F 35.8 °F 35.1 °F 81% 29.41 in 10.0 mi WSW 6.9 mph - N/A   Mostly Cloudy
9:58 AM 43.0 °F 36.8 °F 35.2 °F 74% 29.46 in 10.0 mi WSW 11.5 mph - N/A   Scattered Clouds
10:22 AM 44.6 °F 38.1 °F 33.8 °F 66% 29.48 in 10.0 mi SSW 13.8 mph - N/A   Mostly Cloudy
10:23 AM 44.6 °F 38.1 °F 33.8 °F 66% 29.48 in 10.0 mi South 13.8 mph - N/A   Mostly Cloudy
10:24 AM 44.6 °F 38.1 °F 33.8 °F 66% 29.48 in 10.0 mi South 13.8 mph - N/A   Mostly Cloudy
10:29 AM 44.6 °F 38.4 °F 33.8 °F 66% 29.49 in 10.0 mi South 12.7 mph - N/A   Mostly Cloudy
10:58 AM 44.4 °F 37.9 °F 34.5 °F 68% 29.50 in 10.0 mi South 13.8 mph - N/A   Scattered Clouds
11:58 AM 46.4 °F 38.5 °F 33.4 °F 61% 29.53 in 10.0 mi SSW 21.9 mph - N/A   Scattered Clouds
12:58 PM 47.3 °F - 32.7 °F 57% 29.56 in 10.0 mi South 18.4 mph - N/A   Mostly Cloudy
1:58 PM 48.4 °F - 31.6 °F 52% 29.58 in 10.0 mi South 16.1 mph 27.6 mph N/A   Scattered Clouds
2:58 PM 49.3 °F - 31.6 °F 51% 29.60 in 10.0 mi SSW 13.8 mph - N/A   Partly Cloudy
3:58 PM 49.6 °F - 30.7 °F 48% 29.61 in 10.0 mi SW 10.4 mph - N/A   Clear
4:58 PM 48.7 °F - 28.0 °F 45% 29.63 in 10.0 mi WSW 12.7 mph - N/A   Clear
5:58 PM 47.5 °F - 26.6 °F 44% 29.63 in 10.0 mi SSW 8.1 mph - N/A   Clear
6:58 PM 44.1 °F 42.5 °F 26.1 °F 49% 29.64 in 10.0 mi South 3.5 mph - N/A   Clear
7:58 PM 42.1 °F 37.1 °F 28.4 °F 58% 29.67 in 10.0 mi South 8.1 mph - N/A   Clear
8:58 PM 41.2 °F 36.0 °F 28.9 °F 62% 29.69 in 10.0 mi South 8.1 mph - N/A   Clear
9:58 PM 41.2 °F 35.5 °F 28.0 °F 60% 29.70 in 10.0 mi South 9.2 mph - N/A   Clear
10:58 PM 39.2 °F 35.9 °F 26.1 °F 59% 29.70 in 10.0 mi SSE 4.6 mph - N/A   Clear
11:58 PM 36.9 °F 32.2 °F 25.0 °F 62% 29.71 in 10.0 mi East 5.8 mph - N/A   Clear